[[{"header":{"parameterUnit":"m.s-1","parameterCategory":2,"la1":30.2992,"la2":30.254,"lo1":-89.0895,"lo2":-89.0443,"dy":0.0025,"dx":0.0025,"nx":19,"ny":19,"refTime":"2026-03-06T03:00:00:Z","depth":"0","parameterNumber":2,"parameterNumberName":"U-component_of_CURRENTS"},"data":[0,0,0,-0.2056,-0.2058,-0.2118,-0.2118,-0.2221,-0.2222,0,0,0,0,0,0,0,0,0,0,0,-0.2028,-0.2028,-0.2056,-0.2058,-0.2117,-0.2118,-0.2221,-0.2222,0,0,0,0,0,0,0,0,0,0,0,-0.2028,-0.2028,-0.2028,-0.2058,-0.2117,-0.2118,-0.2221,-0.2168,0,0,0,0,0,0,0,0,0,0,-0.2107,-0.2066,-0.2028,-0.2028,-0.2058,-0.2117,-0.2118,-0.2166,-0.2172,-0.2202,0,-0.2208,0,-0.2223,-0.223,-0.223,0,0,0,-0.2056,-0.206,-0.209,-0.2028,-0.2059,-0.2117,-0.209,-0.2169,-0.2176,-0.2211,-0.2209,-0.2213,-0.2225,-0.223,-0.2231,-0.2278,-0.2277,0,0,-0.2053,-0.2028,-0.2085,-0.2095,-0.2071,-0.2088,-0.2092,-0.2173,-0.2171,-0.221,-0.2216,-0.2227,-0.2231,-0.2232,-0.2278,-0.2278,0,0,0,-0.2044,-0.2026,-0.2053,-0.209,-0.2102,-0.209,-0.2094,-0.2167,-0.218,-0.2217,-0.2228,-0.2232,-0.2233,-0.2278,-0.2278,-0.2306,0,0,0,-0.2042,-0.2022,-0.2051,-0.2036,-0.21,-0.2129,-0.2086,-0.2174,-0.2184,-0.2227,-0.2232,-0.2234,-0.2279,-0.2278,-0.2306,-0.2338,0,0,0,-0.2026,-0.202,-0.2028,-0.2035,-0.2064,-0.2128,-0.2145,-0.2176,-0.2191,-0.223,-0.2235,-0.2279,-0.2278,-0.2306,-0.2337,-0.2376,0,0,0,-0.1997,-0.2035,-0.2027,-0.2083,-0.2064,-0.2144,-0.2144,-0.2202,-0.2239,-0.2233,-0.2279,-0.2278,-0.2306,-0.2336,-0.2375,-0.2196,-0.2187,0,0,-0.204,-0.2039,-0.208,-0.2076,-0.215,-0.2135,-0.2192,-0.2234,-0.2229,-0.2255,-0.2256,-0.2306,-0.2337,-0.2376,-0.2148,-0.214,0,0,0,-0.2093,-0.2103,-0.2134,-0.2165,-0.2217,-0.2228,-0.225,-0.2251,-0.2258,-0.2246,-0.2281,-0.2299,-0.2324,-0.2212,-0.2205,-0.2104,-0.2274,-0.2274,-0.2274,-0.207,-0.2119,-0.2166,-0.2212,-0.2253,-0.2287,-0.2307,-0.2294,-0.229,-0.2275,-0.2303,-0.2327,-0.2203,-0.2198,-0.2095,-0.2269,-0.227,-0.227,-0.227,-0.2091,-0.2104,-0.2154,-0.2212,-0.2242,-0.2272,-0.2324,-0.2322,-0.2345,-0.2305,-0.2327,-0.2221,-0.2192,-0.2085,-0.2271,-0.2271,-0.2271,-0.227,-0.227,-0.2037,-0.2048,-0.2088,-0.2144,-0.2191,-0.225,-0.2315,-0.2356,-0.2368,-0.2398,-0.2272,-0.2269,-0.2195,-0.24,-0.2401,-0.2401,-0.2401,-0.2401,-0.2401,-0.1947,-0.1993,-0.2005,-0.2081,-0.2113,-0.2193,-0.2311,-0.2349,-0.2331,-0.2298,-0.2296,-0.2161,-0.2367,-0.2386,-0.2406,-0.2405,-0.2405,-0.2404,-0.2404,-0.1859,-0.1881,-0.1902,-0.1933,-0.2031,-0.2056,-0.2213,-0.2211,-0.2271,-0.2214,-0.2037,-0.2242,-0.2226,-0.2226,-0.2241,-0.2223,-0.2223,-0.2223,-0.2223,-0.1769,-0.1795,-0.1787,-0.1822,-0.1899,-0.1985,-0.1935,-0.1941,-0.1904,-0.1833,-0.191,-0.1804,-0.1816,-0.1773,-0.1784,-0.1788,-0.1656,-0.1656,-0.1655,-0.1682,-0.1708,-0.1661,-0.1725,-0.1814,-0.1861,-0.1712,-0.1588,-0.1568,-0.1632,-0.1813,-0.1837,-0.1685,-0.1712,-0.1645,-0.1669,-0.1676,0,0]},{"header":{"parameterUnit":"m.s-1","parameterCategory":2,"la1":30.2992,"la2":30.254,"lo1":-89.0895,"lo2":-89.0443,"dy":0.0025,"dx":0.0025,"nx":19,"ny":19,"refTime":"2026-03-06T03:00:00:Z","depth":"0","parameterNumber":3,"parameterNumberName":"V-component_of_CURRENTS"},"data":[0,0,0,-0.0257,-0.0256,-0.0211,-0.0211,-0.0034,-0.0032,0,0,0,0,0,0,0,0,0,0,0,-0.0268,-0.0268,-0.0257,-0.0256,-0.0211,-0.0211,-0.0034,-0.0032,0,0,0,0,0,0,0,0,0,0,0,-0.0268,-0.0268,-0.0267,-0.0256,-0.0211,-0.0211,-0.0035,-0.0094,0,0,0,0,0,0,0,0,0,0,-0.0151,-0.0187,-0.0268,-0.0267,-0.0256,-0.0211,-0.0211,-0.0098,-0.009,-0.0026,0,-0.0029,0,-0.0032,-0.0019,-0.0018,0,0,0,-0.024,-0.0194,-0.0182,-0.0267,-0.0256,-0.0211,-0.0227,-0.0095,-0.0086,-0.0015,-0.0027,-0.0021,-0.0029,-0.0018,-0.0017,0.0097,0.0097,0,0,-0.0242,-0.0251,-0.0189,-0.0178,-0.0254,-0.0228,-0.0226,-0.0091,-0.0082,-0.0026,-0.0017,-0.0026,-0.0017,-0.0015,0.0098,0.0097,0,0,0,-0.0261,-0.0253,-0.0247,-0.0184,-0.0188,-0.0228,-0.0224,-0.0088,-0.0087,-0.0016,-0.0024,-0.0015,-0.0013,0.0098,0.0098,0.0023,0,0,0,-0.0261,-0.0265,-0.0248,-0.0252,-0.0192,-0.0155,-0.0225,-0.0096,-0.0081,-0.0025,-0.0015,-0.0011,0.0098,0.0098,0.0026,-0.0001,0,0,0,-0.0268,-0.0266,-0.0265,-0.0253,-0.0242,-0.0158,-0.0149,-0.0093,-0.0086,-0.0018,-0.0011,0.0098,0.0098,0.0028,0.0003,0.0069,0,0,0,-0.0272,-0.0309,-0.0265,-0.0294,-0.0243,-0.0227,-0.015,-0.0124,-0.0077,-0.0014,0.0098,0.0098,0.0028,0.0005,0.007,0.0136,0.0138,0,0,-0.0331,-0.0316,-0.0333,-0.0294,-0.0306,-0.0231,-0.0214,-0.0123,-0.0056,0.0066,0.0068,0.0025,0.0003,0.0069,0.0108,0.0111,0,0,0,-0.0359,-0.0372,-0.0367,-0.0357,-0.032,-0.0271,-0.0187,-0.0134,-0.0048,-0.0033,0.0036,0.0025,0.007,0.0111,0.0113,0.0247,0.0095,0.0095,0.0095,-0.0443,-0.0421,-0.0443,-0.0407,-0.0378,-0.0289,-0.0236,-0.0141,-0.0076,-0.0057,-0.0028,-0.002,0.002,0.0023,0.0158,-0.0021,-0.0022,-0.0022,-0.0022,-0.0528,-0.0543,-0.0491,-0.0509,-0.0432,-0.0395,-0.026,-0.0207,-0.0087,-0.0072,-0.0024,0.0038,0.0021,0.0165,-0.0027,-0.0026,-0.0025,-0.0025,-0.0024,-0.0586,-0.0594,-0.059,-0.0588,-0.0551,-0.0461,-0.0386,-0.0287,-0.0151,-0.0118,0.0009,0.0011,0.0139,-0.0074,-0.0074,-0.0074,-0.0074,-0.0074,-0.0073,-0.065,-0.0647,-0.0681,-0.0667,-0.0665,-0.0615,-0.0459,-0.0348,-0.0154,-0.005,-0.0048,0.0161,-0.0034,-0.003,-0.0071,-0.0072,-0.0072,-0.0072,-0.0072,-0.0729,-0.0724,-0.0782,-0.0796,-0.0782,-0.0737,-0.058,-0.029,-0.0141,-0.0009,0.0232,0.0025,0.0078,0.0078,0.0086,0.0078,0.0078,0.0078,0.0078,-0.0777,-0.078,-0.0855,-0.0892,-0.0894,-0.0795,-0.0588,-0.0284,0.0123,0.0313,0.0367,0.0384,0.0372,0.0443,0.0435,0.0451,0.0536,0.0537,0.0538,-0.0815,-0.0838,-0.0898,-0.0933,-0.0943,-0.0837,-0.0616,-0.0248,0.0318,0.0568,0.0541,0.0522,0.0554,0.0525,0.0641,0.0618,0.0646,0,0]}],[{"header":{"parameterUnit":"m.s-1","parameterCategory":2,"la1":30.2992,"la2":30.254,"lo1":-89.0895,"lo2":-89.0443,"dy":0.0025,"dx":0.0025,"nx":19,"ny":19,"refTime":"2026-03-06T03:00:00:Z","depth":"2","parameterNumber":2,"parameterNumberName":"U-component_of_CURRENTS"},"data":[0,0,0,-0.1768,-0.1769,-0.183,-0.1831,-0.1892,-0.1892,0,0,0,0,0,0,0,0,0,0,0,-0.174,-0.1741,-0.1768,-0.177,-0.183,-0.1831,-0.1892,-0.1892,0,0,0,0,0,0,0,0,0,0,0,-0.174,-0.174,-0.1741,-0.177,-0.183,-0.1831,-0.1891,-0.1849,0,0,0,0,0,0,0,0,0,0,-0.1791,-0.1762,-0.174,-0.1741,-0.177,-0.183,-0.1831,-0.1847,-0.1852,-0.186,0,-0.1869,0,-0.1887,-0.1896,-0.1896,0,0,0,-0.1766,-0.1758,-0.1784,-0.1741,-0.1771,-0.183,-0.1802,-0.185,-0.1855,-0.1866,-0.187,-0.1873,-0.1888,-0.1897,-0.1897,-0.1931,-0.1931,0,0,-0.1763,-0.1743,-0.1781,-0.1787,-0.1786,-0.18,-0.1804,-0.1853,-0.1852,-0.187,-0.1875,-0.1889,-0.1897,-0.1898,-0.1931,-0.1931,0,0,0,-0.1755,-0.174,-0.1765,-0.1784,-0.18,-0.1802,-0.1806,-0.1849,-0.186,-0.1875,-0.189,-0.1897,-0.1898,-0.1931,-0.1931,-0.1963,0,0,0,-0.1753,-0.1736,-0.1764,-0.1751,-0.1799,-0.1826,-0.1801,-0.1857,-0.1863,-0.1889,-0.1897,-0.1899,-0.1931,-0.1931,-0.1962,-0.1982,0,0,0,-0.1738,-0.1735,-0.1744,-0.175,-0.178,-0.1826,-0.1839,-0.1859,-0.1872,-0.1897,-0.1899,-0.1931,-0.1931,-0.1962,-0.198,-0.2002,0,0,0,-0.1712,-0.1744,-0.1743,-0.1787,-0.1779,-0.1842,-0.1839,-0.1883,-0.1906,-0.1898,-0.1931,-0.1931,-0.1962,-0.1979,-0.2001,-0.1825,-0.1815,0,0,-0.1746,-0.1747,-0.1778,-0.178,-0.1838,-0.1833,-0.1883,-0.1909,-0.1901,-0.1914,-0.1915,-0.1963,-0.198,-0.2002,-0.1814,-0.1805,0,0,0,-0.1786,-0.1795,-0.1818,-0.1846,-0.1888,-0.1906,-0.1925,-0.1928,-0.1936,-0.1915,-0.1949,-0.1959,-0.1972,-0.1863,-0.1856,-0.193,-0.193,-0.193,-0.193,-0.177,-0.1807,-0.1843,-0.1883,-0.1918,-0.1954,-0.1973,-0.1969,-0.1964,-0.1961,-0.1976,-0.2001,-0.1883,-0.1876,-0.1961,-0.1961,-0.1961,-0.1961,-0.1962,-0.1784,-0.1792,-0.1837,-0.1883,-0.1917,-0.1949,-0.1997,-0.2,-0.202,-0.1994,-0.2005,-0.1889,-0.187,-0.1964,-0.1963,-0.1963,-0.1963,-0.1963,-0.1963,-0.1739,-0.1747,-0.1783,-0.1831,-0.1879,-0.1936,-0.1981,-0.2026,-0.204,-0.2062,-0.1932,-0.1929,-0.2034,-0.2063,-0.2063,-0.2063,-0.2063,-0.2063,-0.2063,-0.1663,-0.1702,-0.1712,-0.1779,-0.1805,-0.187,-0.1973,-0.1996,-0.1979,-0.1952,-0.195,-0.2035,-0.2032,-0.2039,-0.2066,-0.2066,-0.2065,-0.2065,-0.2065,-0.1581,-0.1604,-0.1613,-0.1637,-0.1709,-0.1697,-0.1843,-0.1828,-0.1881,-0.1825,-0.1884,-0.1888,-0.1862,-0.1864,-0.1866,-0.1848,-0.1848,-0.1848,-0.1848,-0.1501,-0.1524,-0.1503,-0.1518,-0.1554,-0.1608,-0.1515,-0.1509,-0.1579,-0.1575,-0.1587,-0.1507,-0.1521,-0.1474,-0.1485,-0.1479,-0.1359,-0.1359,-0.1358,-0.1421,-0.1438,-0.1383,-0.1423,-0.1462,-0.1453,-0.1272,-0.1135,-0.1177,-0.1343,-0.1546,-0.1806,-0.1718,-0.1729,-0.168,-0.1689,-0.1687,0,0]},{"header":{"parameterUnit":"m.s-1","parameterCategory":2,"la1":30.2992,"la2":30.254,"lo1":-89.0895,"lo2":-89.0443,"dy":0.0025,"dx":0.0025,"nx":19,"ny":19,"refTime":"2026-03-06T03:00:00:Z","depth":"2","parameterNumber":3,"parameterNumberName":"V-component_of_CURRENTS"},"data":[0,0,0,-0.033,-0.033,-0.0289,-0.0289,-0.0145,-0.0143,0,0,0,0,0,0,0,0,0,0,0,-0.034,-0.034,-0.033,-0.033,-0.0289,-0.0289,-0.0145,-0.0143,0,0,0,0,0,0,0,0,0,0,0,-0.034,-0.034,-0.034,-0.033,-0.0289,-0.0289,-0.0145,-0.0196,0,0,0,0,0,0,0,0,0,0,-0.0245,-0.0275,-0.034,-0.034,-0.033,-0.0289,-0.0289,-0.0199,-0.0192,-0.0142,0,-0.0144,0,-0.0146,-0.0133,-0.0133,0,0,0,-0.0315,-0.0281,-0.027,-0.034,-0.033,-0.0289,-0.0303,-0.0196,-0.0188,-0.0133,-0.0142,-0.0138,-0.0143,-0.0132,-0.0131,-0.0036,-0.0036,0,0,-0.0318,-0.0326,-0.0276,-0.0266,-0.0327,-0.0305,-0.0302,-0.0192,-0.0185,-0.0142,-0.0135,-0.0141,-0.0131,-0.013,-0.0036,-0.0036,0,0,0,-0.0334,-0.0328,-0.0322,-0.0271,-0.0274,-0.0304,-0.0301,-0.019,-0.0189,-0.0133,-0.0139,-0.013,-0.0128,-0.0036,-0.0036,-0.0108,0,0,0,-0.0335,-0.0338,-0.0323,-0.0326,-0.0278,-0.0245,-0.0301,-0.0196,-0.0185,-0.014,-0.013,-0.0127,-0.0035,-0.0036,-0.0106,-0.0141,0,0,0,-0.0341,-0.0339,-0.0338,-0.0327,-0.0317,-0.0248,-0.024,-0.0194,-0.0188,-0.0132,-0.0126,-0.0035,-0.0036,-0.0104,-0.0137,-0.0107,0,0,0,-0.0345,-0.0375,-0.0338,-0.0363,-0.0317,-0.0308,-0.0241,-0.0222,-0.0184,-0.0129,-0.0035,-0.0036,-0.0103,-0.0134,-0.0106,-0.0076,-0.008,0,0,-0.0394,-0.0381,-0.0396,-0.0363,-0.0379,-0.0313,-0.0302,-0.0226,-0.0165,-0.0062,-0.006,-0.0107,-0.0136,-0.0107,-0.0092,-0.0096,0,0,0,-0.0419,-0.0431,-0.0429,-0.0423,-0.0395,-0.0357,-0.0284,-0.0239,-0.0164,-0.0146,-0.0092,-0.0108,-0.0087,-0.0066,-0.0069,-0.0037,-0.0037,-0.0037,-0.0037,-0.0491,-0.0475,-0.0498,-0.0472,-0.0451,-0.0379,-0.0339,-0.0256,-0.0193,-0.0175,-0.0156,-0.0171,-0.0151,-0.0152,-0.0141,-0.0141,-0.0142,-0.0142,-0.0142,-0.0567,-0.0583,-0.0544,-0.0565,-0.0505,-0.0476,-0.0368,-0.0321,-0.0231,-0.02,-0.0174,-0.0131,-0.0159,-0.0147,-0.0146,-0.0146,-0.0145,-0.0145,-0.0144,-0.0619,-0.0627,-0.0628,-0.0635,-0.0612,-0.054,-0.05,-0.0411,-0.0299,-0.0282,-0.0198,-0.0196,-0.02,-0.0252,-0.0252,-0.0252,-0.0252,-0.0252,-0.0252,-0.0675,-0.0676,-0.0711,-0.0708,-0.0714,-0.0687,-0.0578,-0.0506,-0.0359,-0.0267,-0.0266,-0.0206,-0.0203,-0.0204,-0.0253,-0.0252,-0.0252,-0.0252,-0.0252,-0.0745,-0.0742,-0.0802,-0.0823,-0.0835,-0.0823,-0.0717,-0.0526,-0.0418,-0.0324,-0.0232,-0.0232,-0.0193,-0.0189,-0.0188,-0.023,-0.023,-0.023,-0.023,-0.0788,-0.0792,-0.0873,-0.0922,-0.095,-0.0888,-0.0772,-0.0545,-0.0325,-0.022,-0.022,-0.0209,-0.021,-0.017,-0.0167,-0.0165,-0.0201,-0.0201,-0.0201,-0.0825,-0.0849,-0.0914,-0.0961,-0.1,-0.0945,-0.0801,-0.0482,-0.0199,-0.0201,-0.0233,-0.0225,-0.0209,-0.021,-0.0146,-0.0143,-0.0138,0,0]}],[{"header":{"parameterUnit":"m.s-1","parameterCategory":2,"la1":30.2992,"la2":30.254,"lo1":-89.0895,"lo2":-89.0443,"dy":0.0025,"dx":0.0025,"nx":19,"ny":19,"refTime":"2026-03-06T03:00:00:Z","depth":"4","parameterNumber":2,"parameterNumberName":"U-component_of_CURRENTS"},"data":[0,0,0,-0.1285,-0.1288,-0.1404,-0.1404,-0.1441,-0.1441,0,0,0,0,0,0,0,0,0,0,0,-0.1247,-0.1248,-0.1285,-0.1288,-0.1404,-0.1404,-0.1441,-0.1441,0,0,0,0,0,0,0,0,0,0,0,-0.1246,-0.1248,-0.1249,-0.1288,-0.1404,-0.1404,-0.1441,-0.1381,0,0,0,0,0,0,0,0,0,0,-0.1282,-0.1265,-0.1247,-0.1249,-0.1289,-0.1404,-0.1405,-0.1379,-0.1385,-0.1356,0,-0.1383,0,-0.1409,-0.1441,-0.1441,0,0,0,-0.1288,-0.1261,-0.129,-0.1249,-0.129,-0.1404,-0.1351,-0.1383,-0.1389,-0.1363,-0.1383,-0.1386,-0.141,-0.1441,-0.1441,-0.1481,-0.1482,0,0,-0.1281,-0.1267,-0.1286,-0.1294,-0.1329,-0.1348,-0.1355,-0.1388,-0.1396,-0.1384,-0.1387,-0.1411,-0.1441,-0.1441,-0.1481,-0.1482,0,0,0,-0.1263,-0.1262,-0.1293,-0.1291,-0.132,-0.1351,-0.136,-0.1395,-0.1405,-0.1388,-0.1411,-0.1441,-0.1441,-0.148,-0.1481,-0.1515,0,0,0,-0.1259,-0.1252,-0.129,-0.1282,-0.1321,-0.1375,-0.1365,-0.1403,-0.1408,-0.1411,-0.1441,-0.1441,-0.148,-0.1481,-0.1513,-0.1511,0,0,0,-0.124,-0.1249,-0.1265,-0.1281,-0.1331,-0.1376,-0.1389,-0.1405,-0.1421,-0.1441,-0.1441,-0.148,-0.1481,-0.1511,-0.1508,-0.1492,0,0,0,-0.1217,-0.1251,-0.1265,-0.1311,-0.133,-0.1392,-0.1389,-0.1438,-0.1459,-0.1441,-0.148,-0.1481,-0.1511,-0.1507,-0.1491,-0.1271,0,0,0,-0.1245,-0.1255,-0.1281,-0.1296,-0.1351,-0.1376,-0.1436,-0.1464,-0.1463,-0.1459,-0.1462,-0.1514,-0.1508,-0.1491,-0.1338,0,0,0,0,-0.1279,-0.1293,-0.1314,-0.1352,-0.1395,-0.1438,-0.1473,-0.1488,-0.152,-0.1482,-0.1526,-0.1522,-0.151,-0.138,-0.1486,-0.1486,-0.1486,-0.1486,-0.1486,-0.1273,-0.1304,-0.1341,-0.1382,-0.1424,-0.1484,-0.1518,-0.1543,-0.154,-0.1568,-0.156,-0.1583,-0.1451,-0.158,-0.158,-0.158,-0.158,-0.1581,-0.1581,-0.1282,-0.129,-0.1345,-0.1394,-0.1446,-0.1497,-0.1556,-0.1577,-0.16,-0.1604,-0.1591,-0.1439,-0.1584,-0.1584,-0.1583,-0.1583,-0.1582,-0.1582,-0.1582,-0.1243,-0.125,-0.13,-0.1363,-0.1435,-0.1505,-0.1529,-0.1594,-0.1614,-0.1623,-0.1457,-0.1591,-0.1573,-0.1613,-0.1613,-0.1613,-0.1613,-0.1613,-0.1613,-0.1167,-0.1217,-0.1244,-0.1328,-0.1367,-0.1428,-0.1517,-0.151,-0.1557,-0.1457,-0.1622,-0.1593,-0.1592,-0.1575,-0.1612,-0.1612,-0.1612,-0.1612,-0.1613,-0.1087,-0.1124,-0.1146,-0.1183,-0.1255,-0.1279,-0.1403,-0.1351,-0.1324,-0.1257,-0.1357,-0.1369,-0.1324,-0.133,-0.1302,-0.126,-0.1257,-0.1254,0,-0.1014,-0.104,-0.1042,-0.1059,-0.1061,-0.117,-0.108,-0.1102,-0.1139,-0.1108,-0.1312,-0.1426,-0.1434,-0.1387,-0.1387,-0.1354,0,0,0,-0.0942,-0.0959,-0.0924,-0.0962,-0.0956,-0.0956,-0.1041,-0.0986,-0.1167,-0.1057,-0.1185,-0.1203,-0.1432,-0.1609,-0.1571,-0.1569,-0.1539,0,0]},{"header":{"parameterUnit":"m.s-1","parameterCategory":2,"la1":30.2992,"la2":30.254,"lo1":-89.0895,"lo2":-89.0443,"dy":0.0025,"dx":0.0025,"nx":19,"ny":19,"refTime":"2026-03-06T03:00:00:Z","depth":"4","parameterNumber":3,"parameterNumberName":"V-component_of_CURRENTS"},"data":[0,0,0,-0.0284,-0.0284,-0.0268,-0.0267,-0.0175,-0.0175,0,0,0,0,0,0,0,0,0,0,0,-0.0288,-0.0288,-0.0284,-0.0284,-0.0268,-0.0267,-0.0176,-0.0175,0,0,0,0,0,0,0,0,0,0,0,-0.0288,-0.0288,-0.0288,-0.0284,-0.0268,-0.0267,-0.0176,-0.0203,0,0,0,0,0,0,0,0,0,0,-0.0227,-0.0247,-0.0288,-0.0288,-0.0284,-0.0268,-0.0267,-0.0205,-0.0201,-0.0166,0,-0.0172,0,-0.0175,-0.0168,-0.0167,0,0,0,-0.0273,-0.025,-0.0246,-0.0288,-0.0284,-0.0268,-0.0272,-0.0204,-0.0199,-0.0161,-0.0171,-0.0168,-0.0173,-0.0167,-0.0167,-0.0101,-0.0101,0,0,-0.0274,-0.028,-0.0249,-0.0243,-0.0289,-0.0273,-0.0272,-0.0202,-0.0199,-0.017,-0.0166,-0.0172,-0.0166,-0.0166,-0.0101,-0.0101,0,0,0,-0.0284,-0.0281,-0.0279,-0.0247,-0.0252,-0.0272,-0.0271,-0.0202,-0.0202,-0.0165,-0.0171,-0.0166,-0.0165,-0.0101,-0.0101,-0.0166,0,0,0,-0.0284,-0.0288,-0.028,-0.0282,-0.0254,-0.0237,-0.0273,-0.0207,-0.0199,-0.0171,-0.0166,-0.0164,-0.0101,-0.0101,-0.0164,-0.0202,0,0,0,-0.0287,-0.0288,-0.0289,-0.0283,-0.0281,-0.0239,-0.0235,-0.0206,-0.0203,-0.0167,-0.0163,-0.0101,-0.0101,-0.0163,-0.0198,-0.0209,0,0,0,-0.0289,-0.0312,-0.0289,-0.0312,-0.0282,-0.0284,-0.0235,-0.023,-0.0207,-0.0165,-0.0101,-0.0101,-0.0162,-0.0196,-0.0207,-0.0203,0,0,0,-0.0323,-0.0316,-0.0329,-0.0309,-0.033,-0.0285,-0.0287,-0.0239,-0.0191,-0.0117,-0.0116,-0.0165,-0.0198,-0.0208,-0.0208,0,0,0,0,-0.0344,-0.0355,-0.0357,-0.036,-0.0347,-0.0331,-0.0283,-0.0252,-0.02,-0.0179,-0.0149,-0.0167,-0.0172,-0.0163,-0.0102,-0.0102,-0.0102,-0.0102,-0.0102,-0.0393,-0.0387,-0.0412,-0.0402,-0.0395,-0.0356,-0.0337,-0.0278,-0.0227,-0.0214,-0.0208,-0.0245,-0.0237,-0.0187,-0.0187,-0.0188,-0.0188,-0.0188,-0.0188,-0.0449,-0.0464,-0.045,-0.0476,-0.0447,-0.0438,-0.0372,-0.0338,-0.029,-0.0246,-0.0247,-0.0217,-0.0194,-0.0193,-0.0192,-0.0192,-0.0191,-0.0191,-0.019,-0.0482,-0.049,-0.0505,-0.053,-0.0534,-0.0496,-0.0491,-0.0429,-0.0355,-0.0356,-0.0318,-0.0282,-0.029,-0.0347,-0.0347,-0.0348,-0.0348,-0.0348,-0.0348,-0.051,-0.0524,-0.0566,-0.0588,-0.061,-0.0613,-0.0563,-0.0532,-0.0455,-0.0393,-0.0371,-0.0298,-0.0293,-0.0297,-0.0352,-0.0351,-0.0351,-0.035,-0.035,-0.0548,-0.0559,-0.0622,-0.0658,-0.0705,-0.0701,-0.0667,-0.0574,-0.0542,-0.0483,-0.0399,-0.0396,-0.037,-0.0363,-0.0369,-0.0447,-0.0447,-0.0447,0,-0.057,-0.058,-0.0667,-0.0729,-0.0769,-0.0749,-0.0703,-0.0648,-0.054,-0.0524,-0.0548,-0.0459,-0.0453,-0.0428,-0.0422,-0.0432,0,0,0,-0.0591,-0.0617,-0.068,-0.0744,-0.0792,-0.0723,-0.0685,-0.0644,-0.055,-0.0509,-0.0451,-0.045,-0.0439,-0.0362,-0.0313,-0.0306,-0.0311,0,0]}]]